FW0878 Weather Reports


Display with metric or nautical units.
time (UTC)temp
F
wind
direction
speed
MPH
gust
MPH
rain 1hr
in
rain 24hr
in
rain mn
in
humidity
%
barometer
mb
20260506092807 53 265 5.0 17.0 0.02 0.11 0.11 90 1016.7
20260506091808 54 267 6.0 13.0 0.01 0.10 0.10 87 1016.6
20260506091307 54 289 6.0 15.0 0.01 0.10 0.10 87 1016.8
20260506090807 54 227 5.0 12.0 0.01 0.10 0.10 87 1016.2
20260506090307 55 268 6.0 12.0 0.01 0.10 0.10 87 1016.1
20260506085807 55 246 4.0 10.0 0.00 0.09 0.09 87 1016.2
20260506085308 56 243 6.0 13.0 0.00 0.09 0.09 86 1016.0
20260506084807 57 273 3.0 6.0 0.00 0.09 0.09 88 1015.8
20260506084307 56 337 1.0 3.0 0.01 0.09 0.09 88 1015.2
20260506083807 57 180 1.0 2.0 0.04 0.09 0.09 88 1015.1
20260506083307 57 20 1.0 3.0 0.08 0.09 0.09 88 1015.1
20260506082807 57 82 1.0 5.0 0.09 0.09 0.09 89 1015.2
20260506082307 57 225 1.0 5.0 0.09 0.09 0.09 89 1015.1
20260506081808 57 338 1.0 5.0 0.09 0.09 0.09 89 1015.0
20260506081307 57 333 1.0 5.0 0.09 0.09 0.09 89 1015.1
20260506080807 57 318 1.0 5.0 0.09 0.09 0.09 89 1014.9
20260506080307 57 88 1.0 5.0 0.09 0.09 0.09 89 1014.9
20260506073307 60 245 3.0 10.0 0.02 0.02 0.02 80 1015.0
20260506072807 62 290 3.0 7.0 0.00 0.00 0.00 71 1015.1
20260506071806 63 297 3.0 13.0 0.00 0.00 0.00 63 1014.2
20260506071307 63 333 3.0 6.0 0.00 0.00 0.00 62 1014.3
20260506070806 63 40 2.0 12.0 0.00 0.00 0.00 62 1014.3
20260506070307 64 4 2.0 12.0 0.00 0.00 0.00 61 1014.3
20260506062306 65 315 3.0 8.0 0.00 0.00 0.00 55 1014.6
20260506061807 66 338 2.0 9.0 0.00 0.00 0.00 55 1014.7
20260506061307 65 292 2.0 7.0 0.00 0.00 0.00 55 1014.6
20260506060807 65 315 1.0 7.0 0.00 0.00 0.00 55 1014.8
20260506051307 68 24 4.0 8.0 0.00 0.00 0.00 49 1015.0
20260506050807 68 271 3.0 12.0 0.00 0.00 0.00 50 1015.2
20260506050306 67 226 3.0 12.0 0.00 0.00 0.00 51 1015.2
20260506044308 66 292 2.0 6.0 0.00 0.00 0.00 52 1015.6
20260506043807 67 338 1.0 6.0 0.00 0.00 0.00 51 1015.6
20260506043306 67 234 2.0 6.0 0.00 0.00 0.00 51 1015.7
20260506042807 67 338 2.0 7.0 0.00 0.00 0.00 50 1015.8
20260506042307 68 20 2.0 7.0 0.00 0.00 0.00 49 1016.1
20260506040807 67 311 2.0 5.0 0.00 0.00 0.00 50 1015.9
20260506040307 68 25 1.0 6.0 0.00 0.00 0.00 49 1016.1
20260506035807 69 0 2.0 6.0 0.00 0.00 0.00 47 1016.2
20260506035307 68 247 2.0 8.0 0.00 0.00 0.00 48 1016.3
20260506034807 67 336 2.0 7.0 0.00 0.00 0.00 49 1016.2
20260506034307 66 247 2.0 6.0 0.00 0.00 0.00 51 1016.5
20260506033807 66 295 2.0 5.0 0.00 0.00 0.00 51 1016.6
20260506033307 65 293 2.0 6.0 0.00 0.00 0.00 52 1016.7
20260506032807 65 5 2.0 9.0 0.00 0.00 0.00 52 1016.9
20260506032307 66 224 3.0 6.0 0.00 0.00 0.00 51 1017.1
20260506031807 66 292 2.0 3.0 0.00 0.00 0.00 50 1016.9
20260506031307 66 357 1.0 7.0 0.00 0.00 0.00 50 1017.0
20260506030807 67 268 2.0 9.0 0.00 0.00 0.00 50 1017.2
20260506030307 67 336 3.0 7.0 0.00 0.00 0.00 49 1017.1
20260506025808 67 89 3.0 7.0 0.00 0.00 0.00 49 1017.2
20260506025308 67 338 2.0 7.0 0.00 0.00 0.00 49 1017.4
20260506024807 68 157 3.0 8.0 0.00 0.00 0.00 48 1017.5
20260506024307 68 54 3.0 8.0 0.00 0.00 0.00 48 1017.5
20260506023807 66 20 3.0 6.0 0.00 0.00 0.00 50 1017.6
20260506023307 66 249 2.0 6.0 0.00 0.00 0.00 50 1017.7
20260506022806 66 252 3.0 7.0 0.00 0.00 0.00 50 1018.0
20260506022307 67 161 3.0 6.0 0.00 0.00 0.00 49 1018.1
20260506021807 67 179 3.0 8.0 0.00 0.00 0.00 49 1018.3
20260506021307 67 62 2.0 8.0 0.00 0.00 0.00 49 1018.3
20260506020808 66 24 2.0 5.0 0.00 0.00 0.00 50 1018.4
20260506015806 65 230 3.0 6.0 0.00 0.00 0.00 51 1018.6
20260506015308 66 359 3.0 8.0 0.00 0.00 0.00 50 1018.7
20260506014807 65 228 2.0 9.0 0.00 0.00 0.00 51 1018.9
20260506014307 65 206 3.0 8.0 0.00 0.00 0.00 52 1018.9
20260506013807 65 202 3.0 8.0 0.00 0.00 0.00 52 1019.1
20260506013306 64 90 3.0 8.0 0.00 0.00 0.00 54 1019.1
20260506012807 64 205 2.0 6.0 0.00 0.00 0.00 54 1019.4
20260506011807 63 315 2.0 7.0 0.00 0.00 0.00 55 1019.4
20260506011306 63 272 3.0 7.0 0.00 0.00 0.00 55 1019.5
20260506010307 63 337 1.0 7.0 0.00 0.00 0.00 56 1019.8
20260506005807 63 314 3.0 7.0 0.00 0.00 0.00 56 1019.8
20260506005307 63 0 2.0 6.0 0.00 0.00 0.00 55 1019.9
20260506004807 64 251 3.0 6.0 0.00 0.00 0.00 54 1019.8
20260506003807 65 338 2.0 8.0 0.00 0.00 0.00 53 1020.1
20260506003308 65 338 3.0 6.0 0.00 0.00 0.00 52 1020.0
20260506002307 64 138 2.0 6.0 0.00 0.00 0.00 53 1020.2
20260506001807 64 333 2.0 7.0 0.00 0.00 0.00 53 1020.2
20260506001307 63 20 2.0 6.0 0.00 0.00 0.00 54 1020.4
20260506000807 62 205 1.0 5.0 0.00 0.00 0.00 56 1020.2
20260506000309 62 161 1.0 7.0 0.00 0.00 0.00 56 1020.2
20260505235807 63 337 2.0 7.0 0.00 0.00 0.00 56 1020.4
20260505234807 62 225 1.0 3.0 0.00 0.00 0.00 57 1020.2
20260505234307 62 309 1.0 6.0 0.00 0.00 0.00 58 1020.2
20260505233808 62 338 1.0 3.0 0.00 0.00 0.00 56 1020.3
20260505233307 63 228 2.0 6.0 0.00 0.00 0.00 56 1020.5
20260505232807 63 133 1.0 5.0 0.00 0.00 0.00 55 1020.5
20260505232307 63 338 1.0 3.0 0.00 0.00 0.00 56 1020.5
20260505231806 62 342 1.0 3.0 0.00 0.00 0.00 56 1020.7
20260505231308 62 336 1.0 3.0 0.00 0.00 0.00 57 1020.6
20260505230807 61 317 1.0 5.0 0.00 0.00 0.00 59 1020.7
20260505225807 60 338 1.0 3.0 0.00 0.00 0.00 61 1020.7
20260505224807 59 0 1.0 3.0 0.00 0.00 0.00 63 1020.8
20260505224307 58 272 1.0 2.0 0.00 0.00 0.00 66 1020.9
20260505223807 57 338 1.0 2.0 0.00 0.00 0.00 67 1020.9
20260505223308 56 21 1.0 2.0 0.00 0.01 0.00 69 1020.8
20260505222807 55 21 1.0 2.0 0.00 0.01 0.00 71 1020.8
20260505222308 54 339 0.0 1.0 0.00 0.01 0.00 74 1020.7
20260505221807 53 315 0.0 1.0 0.00 0.01 0.00 77 1020.8
20260505221307 51 340 0.0 1.0 0.00 0.01 0.00 80 1020.9
20260505220808 50 0 0.0 1.0 0.00 0.01 0.00 81 1020.9
20260505220307 49 338 0.0 1.0 0.00 0.01 0.00 82 1021.0
20260505215807 48 338 0.0 1.0 0.00 0.01 0.00 82 1020.9
20260505215308 48 338 0.0 1.0 0.00 0.01 0.00 81 1021.0
20260505214807 48 315 0.0 1.0 0.00 0.01 0.00 81 1020.7
20260505214307 48 315 0.0 1.0 0.00 0.01 0.00 81 1020.8
20260505213808 48 272 0.0 1.0 0.00 0.01 0.00 81 1020.9
20260505213307 49 271 0.0 1.0 0.00 0.01 0.00 80 1020.7
20260505212307 49 316 0.0 1.0 0.00 0.01 0.00 80 1020.8
20260505211808 49 337 0.0 2.0 0.00 0.01 0.00 80 1020.8
20260505211307 49 316 1.0 2.0 0.00 0.01 0.00 80 1020.9
20260505210307 49 0 1.0 2.0 0.00 0.01 0.00 80 1020.7
20260505205807 49 313 1.0 2.0 0.00 0.01 0.00 80 1020.7
20260505205307 49 275 1.0 2.0 0.00 0.01 0.00 80 1020.8
20260505204308 49 43 1.0 1.0 0.00 0.01 0.00 79 1020.9
20260505203806 49 316 0.0 1.0 0.00 0.01 0.00 78 1020.9
20260505202807 50 316 0.0 1.0 0.00 0.01 0.00 77 1020.9
20260505202307 51 19 1.0 1.0 0.00 0.01 0.00 77 1021.1
20260505201806 51 20 0.0 1.0 0.00 0.01 0.00 76 1021.0
20260505201307 51 315 0.0 1.0 0.00 0.01 0.00 76 1021.0
20260505200808 51 338 1.0 1.0 0.00 0.01 0.00 75 1021.1
20260505200307 52 292 0.0 1.0 0.00 0.01 0.00 75 1020.9
20260505195807 52 269 0.0 1.0 0.00 0.01 0.00 74 1020.9
20260505195307 53 293 0.0 1.0 0.00 0.01 0.00 74 1021.0
20260505194807 53 292 0.0 1.0 0.00 0.01 0.00 73 1020.9
20260505194308 53 314 0.0 1.0 0.00 0.01 0.00 73 1020.8
20260505193807 54 317 0.0 1.0 0.00 0.01 0.00 73 1020.7
20260505192808 54 65 0.0 1.0 0.00 0.01 0.00 73 1020.9
20260505192307 54 227 1.0 2.0 0.00 0.01 0.00 73 1021.0
20260505191806 54 358 1.0 2.0 0.00 0.01 0.00 73 1021.0
20260505191307 54 357 0.0 1.0 0.00 0.01 0.00 73 1020.8
20260505190807 54 315 0.0 2.0 0.00 0.01 0.00 73 1021.0
20260505190307 54 337 0.0 1.0 0.00 0.01 0.00 74 1020.8
20260505185307 54 294 0.0 1.0 0.00 0.01 0.00 74 1020.8
20260505184807 54 337 1.0 1.0 0.00 0.01 0.00 74 1020.9
20260505184307 54 316 0.0 1.0 0.00 0.01 0.00 74 1020.8
20260505183308 54 338 0.0 1.0 0.00 0.01 0.00 74 1020.8
20260505182808 54 338 1.0 1.0 0.00 0.01 0.00 74 1020.9
20260505182307 54 340 0.0 1.0 0.00 0.01 0.00 75 1020.9
20260505181807 54 292 0.0 0.0 0.00 0.01 0.00 75 1020.9
20260505181308 54 272 0.0 0.0 0.00 0.01 0.00 75 1021.0
20260505180307 54 315 0.0 1.0 0.00 0.01 0.00 75 1020.8
20260505175807 54 313 0.0 1.0 0.00 0.01 0.00 75 1020.9
20260505175306 54 293 0.0 0.0 0.00 0.01 0.00 75 1021.0
20260505174808 54 316 0.0 1.0 0.00 0.01 0.00 76 1020.8
20260505174307 53 293 0.0 0.0 0.00 0.01 0.00 76 1021.0
20260505173807 53 337 0.0 0.0 0.00 0.01 0.00 77 1021.0
20260505172806 53 292 0.0 0.0 0.00 0.01 0.00 78 1021.2
20260505171307 52 338 0.0 0.0 0.00 0.01 0.00 78 1021.3
20260505170807 52 338 0.0 0.0 0.00 0.01 0.00 78 1021.4
20260505170307 52 337 0.0 0.0 0.00 0.01 0.00 78 1021.3
20260505165807 52 315 0.0 0.0 0.00 0.01 0.00 77 1021.4
20260505165307 53 294 0.0 1.0 0.00 0.01 0.00 77 1021.4
20260505164807 53 314 0.0 1.0 0.00 0.01 0.00 76 1021.3
20260505164307 53 315 0.0 1.0 0.00 0.01 0.00 75 1021.5
20260505163807 54 314 0.0 0.0 0.00 0.01 0.00 74 1021.4
20260505163308 54 292 0.0 0.0 0.00 0.01 0.00 74 1021.4
20260505162807 55 292 0.0 0.0 0.00 0.01 0.00 73 1021.5
20260505162307 55 292 0.0 0.0 0.00 0.01 0.00 73 1021.6
20260505161806 56 315 0.0 0.0 0.00 0.01 0.00 73 1021.6
20260505161307 56 339 0.0 0.0 0.00 0.01 0.00 73 1021.6
20260505160308 56 292 0.0 1.0 0.00 0.01 0.00 73 1021.8
20260505153307 57 315 0.0 0.0 0.00 0.01 0.00 72 1021.9
20260505152808 57 314 0.0 1.0 0.00 0.01 0.00 72 1021.9
20260505152307 57 293 0.0 1.0 0.00 0.01 0.00 72 1022.2
20260505151807 57 315 0.0 1.0 0.00 0.01 0.00 72 1022.1
20260505130307 58 292 0.0 0.0 0.00 0.01 0.00 71 1022.4
20260505124807 58 249 0.0 1.0 0.00 0.01 0.00 71 1022.6
20260505124307 58 270 0.0 1.0 0.00 0.01 0.00 71 1022.6
20260505123807 58 249 0.0 1.0 0.00 0.01 0.00 71 1022.7
20260505123307 58 270 0.0 1.0 0.00 0.01 0.00 70 1022.5
20260505122807 58 249 0.0 1.0 0.00 0.01 0.00 70 1022.7
20260505122308 58 313 0.0 1.0 0.00 0.01 0.00 70 1022.9
20260505120807 58 248 0.0 1.0 0.00 0.01 0.00 69 1022.8
20260505120307 58 270 0.0 1.0 0.00 0.01 0.00 69 1022.8
20260505115807 58 248 0.0 1.0 0.00 0.01 0.00 69 1022.8
20260505115306 59 270 0.0 1.0 0.00 0.01 0.00 69 1022.8
20260505114808 59 248 0.0 2.0 0.00 0.01 0.00 69 1022.9
20260505114307 59 269 1.0 2.0 0.00 0.01 0.00 69 1022.8
20260505113807 59 226 1.0 2.0 0.00 0.01 0.00 68 1022.8
20260505113307 59 249 1.0 2.0 0.00 0.01 0.00 68 1022.9
20260505111806 59 249 1.0 2.0 0.00 0.01 0.00 67 1023.0
20260505111307 59 248 1.0 2.0 0.00 0.01 0.00 67 1022.8
20260505110807 59 270 1.0 2.0 0.00 0.01 0.00 67 1022.8
20260505110307 59 248 1.0 1.0 0.00 0.01 0.00 67 1022.8
20260505101807 59 248 1.0 3.0 0.00 0.01 0.00 66 1022.7
20260505101307 59 270 0.0 1.0 0.00 0.01 0.00 66 1022.8
20260505100807 59 270 0.0 2.0 0.00 0.01 0.00 66 1022.9
20260505100307 59 291 1.0 3.0 0.00 0.01 0.00 66 1022.7
20260505095807 59 247 1.0 2.0 0.00 0.01 0.00 67 1022.9
20260505094808 60 226 1.0 2.0 0.00 0.01 0.00 66 1022.7
20260505094307 60 249 0.0 3.0 0.00 0.01 0.00 66 1022.6
20260505093807 60 289 1.0 2.0 0.00 0.01 0.00 66 1022.7